Edewecht - Temperatur in Bodennähe - Verlauf
ab 04.09.2026

Im Diagramm zeigen wir die aktuellen Messwerte der Wetterstation Friesoythe-Altenoythe. Wir bekommen die Daten alle halbe Stunde von deutschen Wetterdienst (mit zusätzlich leichter Zeitverzögerung).

Zeitlicher beginn des Diagramms: 04.09.2026 | Vortag anzeigen
 
© Datenbasis: DWD - Deutscher Wetterdienst, Abteilung Climate Data Center (CDC)
 
Grafische Verläufe
 
Messverfahren:
Die Messungen haben einen zeitlichen Abstand von 10 Minuten. Die Dauer jeder Messung beträgt eine Minute. Die Temperatur wird jeweils 5 Zentimeter über dem Boden gemessen. Die Produktabkürzung (DWD) für die zehnminütige Messung in 5 cm Höhe lautet «T5_10»
 
Einzelwerte tabellarisch
 
04.09.2026 02:0017,4
04.09.2026 02:1017,2
04.09.2026 02:2017,3
04.09.2026 02:3017,7
04.09.2026 02:4017,7
04.09.2026 02:5017,7
04.09.2026 03:0017,7
04.09.2026 03:1018,1
04.09.2026 03:2018,1
04.09.2026 03:3018,4
04.09.2026 03:4018,5
04.09.2026 03:5018,6
04.09.2026 04:0018,7
04.09.2026 04:1018,3
04.09.2026 04:2018,6
04.09.2026 04:3018,7
04.09.2026 04:4018,4
04.09.2026 04:5018,1
04.09.2026 05:0018,2
04.09.2026 05:1018,4
04.09.2026 05:2018,6
04.09.2026 05:3018,8
04.09.2026 05:4018,9
04.09.2026 05:5018,9
04.09.2026 06:0019,2
04.09.2026 06:1019,3
04.09.2026 06:2018,5
04.09.2026 06:3018,6
04.09.2026 06:4019,0
04.09.2026 06:5018,2
04.09.2026 07:0018,1
04.09.2026 07:1018,2
04.09.2026 07:2018,3
04.09.2026 07:3018,4
04.09.2026 07:4018,4
04.09.2026 07:5018,5
04.09.2026 08:0018,7
04.09.2026 08:1018,8
04.09.2026 08:2018,9
04.09.2026 08:3018,5
04.09.2026 08:4018,6
04.09.2026 08:5018,9
04.09.2026 09:0019,1
04.09.2026 09:1019,1
04.09.2026 09:2019,4
04.09.2026 09:3020,2
04.09.2026 09:4019,9
04.09.2026 09:5020,1
04.09.2026 10:0020,3
04.09.2026 10:1020,2
04.09.2026 10:2018,6
04.09.2026 10:3019,1
04.09.2026 10:4018,9
04.09.2026 10:5018,8
04.09.2026 11:0019,2
04.09.2026 11:1019,5
04.09.2026 11:2020,4
04.09.2026 11:3019,2
04.09.2026 11:4019,2
04.09.2026 11:5019,6
04.09.2026 12:0019,3
04.09.2026 12:1019,4
04.09.2026 12:2019,1
04.09.2026 12:3019,1
04.09.2026 12:4019,1
04.09.2026 12:5019,3
04.09.2026 13:0019,7
04.09.2026 13:1019,9
04.09.2026 13:2020,0
04.09.2026 13:3019,9
04.09.2026 13:4019,8
04.09.2026 13:5019,6
04.09.2026 14:0019,4
04.09.2026 14:1019,5
04.09.2026 14:2019,1
04.09.2026 14:3017,8
04.09.2026 14:4017,6
04.09.2026 14:5017,5
04.09.2026 15:0017,2
04.09.2026 15:1017,5
04.09.2026 15:2017,7
04.09.2026 15:3017,3
04.09.2026 15:4017,3
04.09.2026 15:5017,1
04.09.2026 16:0017,2
04.09.2026 16:1017,6
04.09.2026 16:2017,4
04.09.2026 16:3017,5
04.09.2026 16:4018,5
04.09.2026 16:5018,5
04.09.2026 17:0018,7
04.09.2026 17:1018,6
04.09.2026 17:2018,5
04.09.2026 17:3018,4
04.09.2026 17:4018,4
04.09.2026 17:5018,4
04.09.2026 18:0018,2
04.09.2026 18:1018,0
04.09.2026 18:2017,9
04.09.2026 18:3017,7
04.09.2026 18:4017,6
04.09.2026 18:5017,5
04.09.2026 19:0017,4
04.09.2026 19:1017,4
04.09.2026 19:2017,2
04.09.2026 19:3017,1
04.09.2026 19:4016,9
04.09.2026 19:5016,7
04.09.2026 20:0016,6
04.09.2026 20:1016,2
04.09.2026 20:2016,2
04.09.2026 20:3015,8
04.09.2026 20:4015,5
04.09.2026 20:5015,6
04.09.2026 21:0015,7
04.09.2026 21:1015,5
04.09.2026 21:2015,4
04.09.2026 21:3015,3
04.09.2026 21:4015,3
04.09.2026 21:5015,2
04.09.2026 22:0015,2
04.09.2026 22:1015,2
04.09.2026 22:2015,0